Regional Weather Roundup
Issued by NWS

Home | Current Version | Previous Version | Graphics & Text | Print | Product List | Glossary On
Versions: 1 2 3 4 5 6 7 8 9 10 11 12 13 14 15 16 17 18 19 20 21 22 23 24 25 26 27 28 29 30 31 32 33 34 35 36 37 38 39 40 41 42 43 44 45 46 47 48 49 50
000
ASUS43 KMKX 311500
RWRWI

WISCONSIN REGIONAL WEATHER ROUNDUP
NATIONAL WEATHER SERVICE MILWAUKEE/SULLIVAN WI
1000 AM CDT FRI JUL 31 2015

NOTE: "FAIR" INDICATES FEW OR NO CLOUDS BELOW 12,000 FEET WITH NO
SIGNIFICANT WEATHER AND/OR OBSTRUCTIONS TO VISIBILITY.

WIZ001-002-006>008-014>016-023>028-311600-
NORTHWEST WISCONSIN

CITY           SKY/WX    TMP DP  RH WIND       PRES   REMARKS
SUPERIOR ARPT  SUNNY     70  55  58 W10G18    29.98S
ASHLAND        SUNNY     72  57  59 W9G20     29.96S
HAYWARD        SUNNY     71  54  54 W8        30.00S
SIREN          SUNNY     70  55  57 W10       30.03S
CUMBERLAND     SUNNY     68  54  60 NW14      30.03S
RICE LAKE      SUNNY     69  55  60 W13G18    30.04S
CHETEK         SUNNY     70  56  61 W8G18     30.03S
LADYSMITH      SUNNY     71  56  58 W13       30.02S
EAU CLAIRE     NOT AVBL
MENOMONIE      SUNNY     73  54  50 W14       30.04S
NEW RICHMOND   SUNNY     72  53  51 W13G21    30.06S
OSCEOLA        SUNNY     71  55  56 W12       30.08S
$$

WIZ003>005-009-010-017-018-311600-
NORTH CENTRAL WISCONSIN

CITY           SKY/WX    TMP DP  RH WIND       PRES   REMARKS
MANITOWISH WTR SUNNY     67  56  68 NW13G21   29.96R
ARBOR VITAE    SUNNY     69  56  63 NW16      29.96R
WOODRUFF       SUNNY     69  56  63 NW16      29.96R
RHINELANDER    SUNNY     71  54  54 NW10G22   29.96S
EAGLE RIVER    SUNNY     69  55  60 W13G18    29.94S
LAND O LAKES   MOSUNNY   69  54  59 NW8       29.95R
PHILLIPS       SUNNY     69  55  60 NW9G18    29.98F
TOMAHAWK       SUNNY     68  55  63 NW8G20    29.98R
MEDFORD        SUNNY     68  56  63 NW9G20    30.00S
MERRILL        NOT AVBL
$$

WIZ029-030-035-036-043>047-311600-
CENTRAL WISCONSIN

CITY           SKY/WX    TMP DP  RH WIND       PRES   REMARKS
WAUSAU         SUNNY     74  54  49 NW14      29.96S
MOSINEE        MOSUNNY   72  55  56 W18G24    29.99S
MARSHFIELD     SUNNY     73  53  49 NW16G25   30.01S
STEVENS POINT  SUNNY     70  54  55 NW13G24   29.99S
WAUPACA        SUNNY     76  57  52 W10G18    29.96S
WAUTOMA        NOT AVBL
WISC RAPIDS    SUNNY     75  51  43 NW20G26   30.00S
CAMP DOUGLAS   NOT AVBL
$$

WIZ011>013-019>022-031-037>040-048>050-311600-
NORTHEAST WISCONSIN

CITY           SKY/WX    TMP DP  RH WIND       PRES   REMARKS
ANTIGO         MOSUNNY   66  58  74 NW10      29.96S
SHAWANO        SUNNY     74  60  59 W7G17     29.93S
OCONTO         MOSUNNY   75  59  57 NW7       29.89S
STURGEON BAY   MOSUNNY   73  57  56 W15       29.91S
GREEN BAY      SUNNY     76  61  59 W13       29.91F
MANITOWOC      NOT AVBL
APPLETON       MOSUNNY   73  55  53 W16       29.95S
CLINTONVILLE   SUNNY     73  55  53 NW10G17   29.94S
OSHKOSH        SUNNY     76  56  49 W14G26    29.95S
$$

WIZ032>034-041-042-053>061-311600-
SOUTHWEST WISCONSIN

CITY           SKY/WX    TMP DP  RH WIND       PRES   REMARKS
LA CROSSE      SUNNY     77  55  46 NW13      30.05R
SPARTA         SUNNY     74  54  49 W10G17    30.05R
VIROQUA        SUNNY     73  56  56 W9        30.07S
BOSCOBEL       SUNNY     80  58  46 NW7       30.05S HX  80
PRAIRIE DU CHI SUNNY     77  54  45 W8        30.06S
PLATTEVILLE    SUNNY     76  64  66 W10       30.07S
$$

WIZ056-057-062-063-064-067-068-311600-
SOUTH CENTRAL WISCONSIN

CITY           SKY/WX    TMP DP  RH WIND       PRES   REMARKS
REEDSBURG      SUNNY     77  54  43 W13G24    30.02S
BARABOO/DELLS  SUNNY     76  50  39 NW14G23   30.02S
LONE ROCK      NOT AVBL
MINERAL POINT  SUNNY     77  61  57 W9G17     30.07R
MADISON        SUNNY     77  59  53 W13G18    30.01S
MIDDLETON      SUNNY     77  58  51 W14       30.03S
WATERTOWN      SUNNY     77  62  60 W10G17    29.99S
MONROE         SUNNY     75  63  64 W12       30.05S
JANESVILLE     SUNNY     79  63  57 W12G17    30.01S HX  80
$$

WIZ051-052-058>065-066-070>072-311600-
SOUTHEAST WISCONSIN

CITY           SKY/WX    TMP DP  RH WIND       PRES   REMARKS
MILWAUKEE      MOSUNNY   82  57  42 W14G22    29.97F HX  82
WAUKESHA       SUNNY     79  55  44 W12G20    29.99F
MILWAUKEE/TIMM SUNNY     75  54  46 W18       29.97F
RACINE         SUNNY     80  59  48 W8        29.99F HX  81
BURLINGTON     SUNNY     78  59  52 W8        29.99F
KENOSHA        SUNNY     80  64  58 W10       29.99F HX  82
FOND DU LAC    SUNNY     78  56  46 W22G32    29.96S
SHEBOYGAN      SUNNY     78  59  51 W17G23    29.93F
WEST BEND      SUNNY     77  54  44 W14G22    29.97S
JUNEAU         SUNNY     74  59  59 W10G18    30.00S
$$

LSZ147-162-311600-
LAKE SUPERIOR

STATION/POSITION TIME  TEMP    WIND        PRES    WAVE
                       AIR SEA DIR/SP/G            HT/PER
                 (UTC) (F)     (DEG/KT/KT) (MB)    (FT/S)
W MID LAKE BUOY  1350   57 52  260/ 12/ 12 1011.6R   2/ 4
DEVILS ISLAND    1400   59     260/ 16/ 19 1013.3R
PORT WING        1400   66     250/ 14/ 19 1014.6
SAXON HARBOR     1400   68                 1013.5R
$$

LMZ867-665-643>646-311600-
LAKE MICHIGAN

STATION/POSITION TIME  TEMP    WIND        PRES    WAVE
                       AIR SEA DIR/SP/G            HT/PER
                 (UTC) (F)     (DEG/KT/KT) (MB)    (FT/S)
CHAMBERS ISLAND  1400   69     240/  7/ 11 1011.5S
S GREEN BAY BUOY 1400   67 68  270/ 10/ 12 1013.7F
N MID LAKE BUOY  1350   68 68  270/ 14/ 16 1010.4R   2/ 4
NORTHPORT PIER   1400   72     280/  6/ 17 1011.2S
SISTER BAY       1314   74     300/ 15/ 19   N/A
ALGOMA LAKESHORE 1312          270/  6/ 10   N/A
KEWAUNEE LAKESHO 1400   73     270/  6/ 12 1012.0F
SHEBOYGAN LAKESH 1400   74     260/  9/ 11 1013.6F
PORT WASHINGTON  1400   79     260/  8/ 13 1014.9F
ATWATER BUOY     1400   70 62  280/  6/  8 1016.1F
MILWAUKEE LAKESH 1400   76     290/ 10/ 13   N/A
KENOSHA   LAKESH 1400   75     280/ 11/ 14 1015.2S
$$

TC  - TEMPERATURE IN CELSIUS
VSB - VISIBILITY IN STATUTE MILES
WCI - WIND CHILL INDEX
HX  - HEAT INDEX



USA.gov is the U.S. government's official web portal to all federal, state and local government web resources and services.